FW7490 Weather Reports


time (UTC)temp
F
wind
direction
speed
knots
gust
knots
rain 1hr
in
rain 24hr
in
rain mn
in
humidity
%
barometer
mb
20260507193030 58 329 0.0 2.6 0.00 0.15 0.09 68 1012.3
20260507191532 57 312 1.7 2.6 0.00 0.15 0.09 68 1012.3
20260507190028 57 81 0.9 2.6 0.00 0.15 0.09 69 1012.3
20260507184527 56 355 0.0 2.6 0.00 0.15 0.09 70 1012.6
20260507183027 55 304 0.0 1.7 0.01 0.15 0.09 71 1012.6
20260507181530 54 175 0.0 2.6 0.01 0.15 0.09 71 1012.7
20260507180034 54 18 0.0 1.7 0.01 0.15 0.09 72 1012.7
20260507174524 54 229 0.0 2.6 0.01 0.15 0.09 73 1013.0
20260507173030 54 261 0.0 4.3 0.00 0.14 0.08 73 1012.9
20260507171522 54 350 0.9 4.3 0.00 0.14 0.08 73 1013.0
20260507170022 53 5 0.9 4.3 0.00 0.15 0.08 72 1012.7
20260507164524 54 313 0.9 3.5 0.00 0.15 0.08 72 1012.7
20260507163018 54 33 0.9 2.6 0.00 0.15 0.08 72 1012.6
20260507161520 54 324 0.9 4.3 0.00 0.15 0.08 72 1012.5
20260507160016 54 342 0.9 6.1 0.00 0.18 0.08 73 1012.2
20260507154514 54 15 0.9 4.3 0.01 0.18 0.08 74 1012.3
20260507153012 54 67 1.7 8.7 0.01 0.18 0.08 76 1012.2
20260507151509 54 300 0.9 3.5 0.02 0.18 0.08 77 1012.2
20260507150017 55 74 1.7 7.8 0.01 0.17 0.07 77 1012.0
20260507144516 55 11 0.9 3.5 0.01 0.17 0.07 77 1012.0
20260507143004 55 77 0.9 3.5 0.01 0.17 0.07 77 1011.9
20260507141502 55 86 0.0 3.5 0.00 0.16 0.06 77 1011.8
20260507140002 55 45 0.9 2.6 0.00 0.17 0.06 77 1011.7
20260507134612 55 5 0.9 2.6 0.00 0.17 0.06 77 1011.5
20260507133134 55 322 1.7 4.3 0.00 0.17 0.06 77 1011.5
20260507131559 55 323 0.9 3.5 0.00 0.17 0.06 78 1011.4
20260507130108 55 19 0.0 2.6 0.01 0.18 0.06 78 1011.1
20260507124556 55 263 0.9 2.6 0.01 0.18 0.06 78 1011.4
20260507123055 55 277 0.0 1.7 0.01 0.18 0.06 78 1011.3
20260507121606 55 267 0.0 2.6 0.01 0.18 0.06 78 1011.2
20260507120100 55 79 0.0 0.0 0.00 0.18 0.05 78 1011.1
20260507114633 55 79 0.0 0.0 0.00 0.18 0.05 78 1011.0
20260507113051 55 79 0.0 0.0 0.00 0.18 0.05 78 1011.0
20260507111552 55 138 0.0 0.0 0.00 0.18 0.05 78 1011.3
20260507110048 55 319 0.0 0.0 0.00 0.18 0.05 78 1011.1
20260507104547 55 319 0.0 2.6 0.00 0.18 0.05 78 1010.8
20260507103046 55 29 0.0 0.0 0.00 0.18 0.05 78 1010.6
20260507101548 55 29 0.0 0.9 0.00 0.18 0.05 78 1010.1
20260507100046 55 355 0.0 2.6 0.00 0.18 0.05 78 1010.3
20260507094543 56 331 0.0 2.6 0.00 0.18 0.05 77 1010.5
20260507093047 56 91 0.0 0.0 0.01 0.18 0.05 78 1010.1
20260507091546 56 92 0.0 0.0 0.01 0.18 0.05 77 1010.1
20260507090041 56 92 0.0 1.7 0.02 0.18 0.05 77 1009.9
20260507084552 57 342 0.0 0.9 0.02 0.18 0.05 77 1010.1
20260507083037 57 286 0.0 1.7 0.02 0.17 0.04 77 1010.1
20260507081540 58 63 0.0 0.0 0.02 0.17 0.04 77 1009.8
20260507080036 58 63 0.0 1.7 0.01 0.16 0.03 77 1009.6
20260507074531 58 53 0.0 1.7 0.01 0.16 0.03 77 1009.8
20260507073029 59 50 0.9 3.5 0.00 0.15 0.02 77 1010.1
20260507071527 60 304 0.0 1.7 0.00 0.15 0.02 78 1009.7
20260507070031 60 304 0.0 2.6 0.00 0.16 0.02 77 1009.6
20260507064525 60 43 1.7 5.2 0.00 0.16 0.02 77 1009.6
20260507063021 61 312 1.7 5.2 0.02 0.16 0.02 77 1010.3
20260507061519 62 335 0.0 3.5 0.02 0.16 0.02 77 1010.0
20260507060017 63 5 1.7 3.5 0.02 0.16 0.02 78 1010.4
20260507054521 63 229 0.0 0.9 0.02 0.16 0.02 78 1010.7
20260507053017 63 213 0.9 4.3 0.00 0.14 0.00 78 1010.8
20260507051515 63 208 0.9 3.5 0.00 0.14 0.00 78 1010.5
20260507050016 63 182 0.0 2.6 0.01 0.14 0.00 78 1010.2
20260507044515 63 147 0.0 3.5 0.01 0.14 0.00 78 1010.2
20260507043020 63 154 0.0 0.0 0.01 0.14 0.00 77 1010.4
20260507041509 63 153 0.0 0.0 0.01 0.14 0.00 77 1010.8
20260507040010 63 153 0.0 0.0 0.00 0.13 0.13 77 1011.2
20260507034506 63 153 0.0 0.0 0.00 0.13 0.13 77 1011.3
20260507033006 63 153 0.0 0.0 0.00 0.13 0.13 77 1011.8
20260507031505 64 150 0.0 0.0 0.00 0.13 0.13 77 1011.2
20260507030006 64 182 0.0 2.6 0.00 0.13 0.13 77 1011.5
20260507024509 64 236 0.0 1.7 0.00 0.13 0.13 76 1011.5
20260507023004 64 210 0.0 1.7 0.00 0.13 0.13 76 1011.4
20260507021503 64 234 1.7 5.2 0.01 0.13 0.13 75 1011.0
20260507020004 64 267 0.0 3.5 0.02 0.13 0.13 75 1010.7
20260507014502 65 207 0.9 1.7 0.02 0.13 0.13 75 1010.9
20260507013008 65 236 1.7 3.5 0.04 0.13 0.13 75 1011.1
20260507011509 65 195 1.7 8.7 0.03 0.12 0.12 74 1012.1
20260507010002 66 210 0.0 4.3 0.02 0.11 0.11 74 1012.0
20260507004607 66 147 0.0 1.7 0.02 0.11 0.11 73 1011.2
20260507003100 66 146 0.0 1.7 0.01 0.09 0.09 72 1010.9
20260507001600 66 196 0.9 2.6 0.01 0.09 0.09 72 1011.0
20260507000101 66 225 0.0 0.9 0.01 0.09 0.09 72 1010.5
20260506234559 66 227 0.0 2.6 0.01 0.09 0.09 71 1010.4
20260506233111 67 154 0.9 3.5 0.00 0.08 0.08 71 1009.8
20260506231602 68 212 0.0 6.1 0.00 0.08 0.08 70 1010.4
20260506230058 68 216 0.9 3.5 0.00 0.08 0.08 70 1010.3
20260506224559 68 204 0.0 4.3 0.00 0.08 0.08 69 1010.2
20260506223056 69 191 0.0 3.5 0.00 0.08 0.08 68 1010.1
20260506221608 69 201 0.9 6.1 0.00 0.08 0.08 67 1009.7
20260506220056 70 257 0.9 7.0 0.00 0.08 0.08 66 1010.1
20260506214557 70 159 1.7 6.1 0.00 0.08 0.08 66 1009.8
20260506213112 70 173 0.9 3.5 0.00 0.08 0.08 65 1009.1
20260506211553 70 296 0.9 3.5 0.00 0.08 0.08 65 1009.9
20260506210053 70 287 1.7 5.2 0.00 0.08 0.08 64 1009.8
20260506204553 71 236 5.2 8.7 0.00 0.08 0.08 63 1009.9
20260506203052 71 186 1.7 9.6 0.00 0.08 0.08 63 1010.2
20260506201552 71 178 0.9 8.7 0.00 0.08 0.08 63 1010.4
20260506200051 71 242 2.6 7.8 0.00 0.08 0.08 64 1010.5
20260506194551 70 170 1.7 7.0 0.00 0.08 0.08 64 1010.5